This is the latest recevied weather packets stored in our database for station/object W4VCO. If no packets are shown the sender has not sent any weather packets the latest 1 day(s).
| Time | Temp. | Humidity | Pressure | Rain* | Wind** | Luminosity | Snow |
|---|---|---|---|---|---|---|---|
| 1778030413 | 24.44° C | 58% | 1014.5 hPa | 0 mm | 2.24 m/s, 77° | - | - |
| 1778025911 | 26.11° C | 53% | 1013.5 hPa | 0 mm | 2.68 m/s, 100° | - | - |
| 1778019311 | 30.56° C | 34% | 1012.6 hPa | 0 mm | 0 m/s | - | - |
| 1778019014 | 31.11° C | 33% | 1012.7 hPa | 0 mm | 0.45 m/s, 83° | - | - |
| 1778018713 | 31.11° C | 34% | 1012.5 hPa | 0 mm | 1.34 m/s, 132° | - | - |
| 1778017214 | 31.67° C | 34% | 1012.5 hPa | 0 mm | 0 m/s | - | - |
| 1778014813 | 31.11° C | 34% | 1012.6 hPa | 0 mm | 3.13 m/s, 125° | - | - |
| 1778013911 | 31.11° C | 35% | 1012.5 hPa | 0 mm | 1.79 m/s, 41° | - | - |
| 1778013014 | 31.67° C | 33% | 1012.6 hPa | 0 mm | 0 m/s | - | - |
| 1778010615 | 30.56° C | 35% | 1013 hPa | 0 mm | 0 m/s | - | - |
| 1778010312 | 31.11° C | 36% | 1013.1 hPa | 0 mm | 1.79 m/s, 129° | - | - |
| 1778009712 | 30.56° C | 36% | 1012.9 hPa | 0 mm | 3.13 m/s, 79° | - | - |
| 1778009112 | 30.56° C | 38% | 1013.2 hPa | 0 mm | 0.45 m/s, 37° | - | - |
| 1778007912 | 31.67° C | 35% | 1013.5 hPa | 0 mm | 3.13 m/s, 158° | - | - |
| 1778007014 | 31.67° C | 36% | 1013.7 hPa | 0 mm | 1.79 m/s, 120° | - | - |
| 1778006713 | 31.67° C | 38% | 1013.6 hPa | 0 mm | 2.68 m/s, 139° | - | - |
| 1778005816 | 31.11° C | 37% | 1013.8 hPa | 0 mm | 3.13 m/s, 96° | - | - |
| 1778005512 | 31.11° C | 38% | 1013.9 hPa | 0 mm | 0.45 m/s, 153° | - | - |
| 1778004912 | 30.56° C | 39% | 1013.9 hPa | 0 mm | 2.24 m/s, 24° | - | - |
| 1778001314 | 29.44° C | 43% | 1014.9 hPa | 0 mm | 2.68 m/s, 34° | - | - |
| 1777992911 | 27.22° C | 53% | 1014.9 hPa | 0 mm | 3.13 m/s, 111° | - | - |
| 1777989014 | 25° C | 65% | 1014.5 hPa | 0 mm | 3.58 m/s, 97° | - | - |
| 1777988418 | 24.44° C | 68% | 1014.6 hPa | 0 mm | 4.47 m/s, 121° | - | - |
| 1777987511 | 23.33° C | 73% | 1014.5 hPa | 0 mm | 3.58 m/s, 79° | - | - |
| 1777985113 | 20.56° C | 87% | 1014.4 hPa | 0 mm | 1.79 m/s, 105° | - | - |
* Rain latest hour (hover to see other rain measurements)
** Current wind speed in m/s (hover to see current wind gust speed)